Location: *
(46.1866°S, 178.5290°W)
Time: 08:14:19
(UTC+00:00)

Cosmos 1461 - Pass Details

Date: 05 October 2021
Orbit: 520 x 642 km, 65.0° (Epoch: 20 October)

Event Time Altitude Azimuth Distance (km) Brightness Sun altitude
Rises 13:01:33 0° 209° (SSW) 2,911 6.9 -35.9°
Reaches altitude 10° 13:05:10 10° 180° (S) 2,027 6.3 -35.7°
Maximum altitude 13:07:10 13° 154° (SSE) 1,869 6.2 -35.5°
Drops below altitude 10° 13:09:11 10° 128° (SE) 2,046 6.4 -35.4°
Sets 13:12:51 0° 98° (E) 2,964 7.0 -35.1°
